San Francisco, CA

12:18 PM PDT on June 20, 2018 (GMT -0700)
San Francisco International

Weather History for KSFO - November, 2017

Change the Weather History Date:

Tuesday, November 14, 2017

  Actual Average Record
Temperature  
Mean Temperature 58 °F 56 °F  
Max Temperature 64 °F 63 °F 78 °F (2008)
Min Temperature 52 °F 49 °F 36 °F (1978)
Degree Days  
Heating Degree Days 7 9  
Month to date heating degree days 91 105  
Since 1 July heating degree days 227 392  
Cooling Degree Days 0 0  
Month to date cooling degree days 0 0  
Year to date cooling degree days 346 163  
Growing Degree Days 8 (Base 50)    
Moisture  
Dew Point 48 °F    
Average Humidity 66    
Maximum Humidity 89    
Minimum Humidity 43    
Precipitation  
Precipitation 0.00 in 0.08 in 1.04 in (1968)
Month to date precipitation 0.65 0.94  
Year to date precipitation 23.05 15.18  
Sea Level Pressure  
Sea Level Pressure 30.19 in    
Wind  
Wind Speed 6 mph (WNW)    
Max Wind Speed 15 mph    
Max Gust Speed 19 mph    
Visibility 10 miles    
Events      
T = Trace of Precipitation, MM = Missing Value Source: NWS Daily Summary

Daily Weather History Graph

Daily Weather History Graph

Search for Another Location

Airport or City:

Astronomy

Nov. 14, 2017 Rise Set
Actual Time 6:48 AM PST 4:58 PM PST
Civil Twilight 6:20 AM PST 5:26 PM PST
Nautical Twilight 5:49 AM PST 5:58 PM PST
Astronomical Twilight 5:18 AM PST 6:29 PM PST
Moon 3:00 AM PST (11/14) 3:21 PM PST (11/14)
Length of Visible Light 11h 06m
Length of Day
10h 10m
Waning Crescent, 13% of the Moon is Illuminated
Nov 14
Waning Crescent
Nov 18
New
Nov 26
First Quarter
Dec 3
Full
Dec 9
Last Quarter

Hourly Weather History & Observations

Time (PST) Temp. Dew Point Humidity Pressure Visibility Wind Dir Wind Speed Gust Speed Precip Events Conditions
12:56 AM 57.9 °F 53.1 °F 84% 30.23 in 10.0 mi WNW 3.5 mph - N/A   Mostly Cloudy
1:56 AM 55.9 °F 52.0 °F 87% 30.24 in 10.0 mi West 4.6 mph - N/A   Scattered Clouds
2:56 AM 55.9 °F 52.0 °F 87% 30.24 in 10.0 mi WNW 5.8 mph - N/A   Scattered Clouds
3:56 AM 55.0 °F 52.0 °F 89% 30.24 in 10.0 mi West 3.5 mph - N/A   Scattered Clouds
4:56 AM 53.1 °F 50.0 °F 89% 30.25 in 10.0 mi WSW 3.5 mph - N/A   Partly Cloudy
5:56 AM 54.0 °F 50.0 °F 86% 30.25 in 10.0 mi Calm Calm - N/A   Partly Cloudy
6:56 AM 55.0 °F 51.1 °F 86% 30.25 in 10.0 mi NW 3.5 mph - N/A   Partly Cloudy
7:56 AM 55.9 °F 52.0 °F 87% 30.26 in 5.0 mi NNW 8.1 mph - N/A   Partly Cloudy
8:51 AM 57.2 °F 53.6 °F 88% 30.25 in 9.0 mi Calm Calm - N/A   Partly Cloudy
8:56 AM 57.0 °F 53.1 °F 87% 30.25 in 9.0 mi Calm Calm - N/A   Partly Cloudy
9:56 AM 57.9 °F 52.0 °F 81% 30.25 in 9.0 mi NE 5.8 mph - N/A   Partly Cloudy
10:56 AM 59.0 °F 52.0 °F 78% 30.23 in 10.0 mi North 6.9 mph - N/A   Partly Cloudy
11:56 AM 61.0 °F 50.0 °F 67% 30.21 in 10.0 mi North 6.9 mph - N/A   Mostly Cloudy
12:56 PM 63.0 °F 46.9 °F 56% 30.18 in 10.0 mi NNE 6.9 mph - N/A   Mostly Cloudy
1:56 PM 63.0 °F 46.0 °F 54% 30.17 in 10.0 mi NNE 6.9 mph - N/A   Mostly Cloudy
2:56 PM 63.0 °F 43.0 °F 48% 30.14 in 10.0 mi North 8.1 mph - N/A   Scattered Clouds
3:56 PM 62.1 °F 39.0 °F 43% 30.13 in 10.0 mi West 10.4 mph - N/A   Scattered Clouds
4:56 PM 59.0 °F 39.0 °F 48% 30.13 in 10.0 mi West 13.8 mph - N/A   Scattered Clouds
5:56 PM 57.0 °F 43.0 °F 59% 30.13 in 10.0 mi West 9.2 mph - N/A   Scattered Clouds
6:56 PM 57.0 °F 44.1 °F 62% 30.13 in 10.0 mi West 9.2 mph - N/A   Mostly Cloudy
7:56 PM 57.0 °F 44.1 °F 62% 30.13 in 10.0 mi West 11.5 mph - N/A   Mostly Cloudy
8:56 PM 55.9 °F 45.0 °F 67% 30.13 in 10.0 mi West 8.1 mph - N/A   Mostly Cloudy
9:56 PM 55.9 °F 46.0 °F 69% 30.13 in 10.0 mi WNW 6.9 mph - N/A   Mostly Cloudy
10:56 PM 55.9 °F 46.9 °F 72% 30.12 in 10.0 mi West 5.8 mph - N/A   Mostly Cloudy
11:56 PM 55.9 °F 46.0 °F 69% 30.11 in 10.0 mi West 3.5 mph - N/A   Mostly Cloudy